Flight Track Log - Related Links

Times and Time Zones

All times are in EDT time to prevent confusion due to time zone crossing. See the N966QS flight status page for this flight to view local times or setup timezone preferences in your user account.

Time Position Orientation Groundspeed Altitude Reporting Facility
EDT Latitude Longitude Course Direction KTS MPH feet Rate Location/Type
Fri 09:45:39 AM 25.8003 -80.2744 80° East 165 190 1,000  Level Miami Center
Fri 09:46:09 AM 25.8050 -80.2447 80° East 205 236 3,100 3,824 Climbing Miami Center
Fri 09:47:10 AM 25.8131 -80.1733 83° East 266 306 6,800 1,902 Climbing Miami Center
Fri 09:48:12 AM 25.8886 -80.1500 16° North 289 333 7,000 98 Climbing Miami Center
Fri 09:49:13 AM 25.9700 -80.1614 353° North 288 331 7,000 776 Level Miami Center
Fri 09:50:08 AM 26.0383 -80.1797 346° North 294 338 8,500 1,752 Climbing Miami Center
Fri 09:51:30 AM 26.1219 -80.2767 314° West 316 364 11,000 1,859 Climbing Miami Center
Fri 09:52:30 AM 26.1844 -80.3664 308° West 343 395 12,900 1,900 Climbing Miami Center
Fri 09:53:30 AM 26.2494 -80.4403 314° West 365 420 14,800 1,900 Climbing Miami Center
Fri 09:54:30 AM 26.3589 -80.4922 337° Northwest 378 435 16,700 1,700 Climbing Miami Center
Fri 09:55:30 AM 26.4519 -80.5369 337° Northwest 394 453 18,200 1,650 Climbing Miami Center
Fri 09:56:30 AM 26.5653 -80.5914 337° Northwest 402 463 20,000 1,450 Climbing Miami Center
Fri 09:57:30 AM 26.6603 -80.6364 337° Northwest 408 470 21,100 1,250 Climbing Miami Center
Fri 09:58:30 AM 26.7819 -80.6961 336° Northwest 419 482 22,500 1,400 Climbing Miami Center
Fri 09:59:30 AM 26.8956 -80.7369 342° North 419 482 23,900 1,450 Climbing Miami Center
Fri 10:00:30 AM 27.0156 -80.7808 342° North 430 495 25,400 1,450 Climbing Miami Center
Fri 10:01:30 AM 27.1333 -80.8244 342° North 441 507 26,800 1,300 Climbing Miami Center
Fri 10:02:30 AM 27.2553 -80.8681 342° North 441 507 28,000 600 Climbing Miami Center
Fri 10:03:30 AM 27.3669 -80.9072 343° North 452 520 28,000  Level Miami Center
Fri 10:04:30 AM 27.5014 -80.9539 343° North 476 548 28,000  Level Miami Center
Fri 10:05:30 AM 27.6314 -81.0033 341° North 490 564 28,000  Level Miami Center
Fri 10:06:30 AM 27.7656 -81.0528 342° North 496 571 28,000  Level Miami Center
Fri 10:07:30 AM 27.9000 -81.1022 342° North 501 577 28,000  Level Miami Center
Fri 10:08:30 AM 28.0486 -81.1547 343° North 507 583 28,000 -286 Level Miami Center
Fri 10:11:00 AM 28.3903 -81.2833 342° North 513 590 27,000 -286 Descending Jacksonville Center
Fri 10:12:00 AM 28.5244 -81.3308 343° North 513 590 27,000  Level Jacksonville Center
Fri 10:13:00 AM 28.6644 -81.3500 353° North 502 578 27,000 -500 Level Jacksonville Center
Fri 10:14:00 AM 28.7944 -81.4000 341° North 497 572 26,000 -1,250 Descending Jacksonville Center
Fri 10:15:00 AM 28.9081 -81.4908 325° Northwest 483 556 24,500 -1,500 Descending Jacksonville Center
Fri 10:16:00 AM 29.0197 -81.5772 326° Northwest 490 564 23,000 -1,500 Descending Jacksonville Center
Fri 10:17:00 AM 29.1514 -81.6039 350° North 475 547 21,500 -1,450 Descending Jacksonville Center
Fri 10:18:00 AM 29.2664 -81.6189 354° North 461 531 20,100 -1,450 Descending Jacksonville Center
Fri 10:19:00 AM 29.3939 -81.6317 355° North 461 531 18,600 -1,388 Descending Jacksonville Center
Fri 10:20:01 AM 29.5214 -81.6419 356° North 461 531 17,300 -1,300 Descending Jacksonville Center
Fri 10:21:00 AM 29.6425 -81.6500 357° North 456 525 16,000 -655 Descending Jacksonville Center
Fri 10:22:00 AM 29.7617 -81.6747 350° North 444 511 16,000  Level Jacksonville Center
Fri 10:23:00 AM 29.8933 -81.6972 352° North 446 513 16,000  Level Jacksonville Center
Fri 10:23:43 AM 29.9767 -81.6647 19° North 448 516 16,000 -612 Level Jacksonville Center
Fri 10:24:38 AM 30.0806 -81.6228 19° North 424 488 15,000 -891 Descending Jacksonville Center
Fri 10:25:51 AM 30.2117 -81.5633 21° North 411 473 14,100 -1,266 Descending Jacksonville Center
Fri 10:26:46 AM 30.3031 -81.5283 18° North 401 461 12,300 -2,017 Descending Jacksonville Center
Fri 10:27:47 AM 30.4008 -81.4836 22° Northeast 332 382 10,200 -2,060 Descending Jacksonville Center
Fri 10:29:00 AM 30.4881 -81.4439 21° North 300 345 7,700 -1,895 Descending Jacksonville Center
Fri 10:30:00 AM 30.5631 -81.4403 North 281 323 6,000 -900 Descending Jacksonville Center
Fri 10:31:00 AM 30.6464 -81.4342 North 276 318 5,900 -50 Descending Jacksonville Center
Fri 10:32:00 AM 30.7133 -81.4331 North 256 295 5,900 50 Level Jacksonville Center
Fri 10:33:00 AM 30.7739 -81.4369 357° North 233 268 6,000 -650 Climbing Jacksonville Center
Fri 10:34:00 AM 30.8325 -81.4386 359° North 215 247 4,600 -1,050 Descending Jacksonville Center
Fri 10:35:00 AM 30.8889 -81.4425 357° North 215 247 3,900 -300 Descending Jacksonville Center
Fri 10:36:00 AM 30.9472 -81.4442 359° North 210 242 4,000 50 Climbing Jacksonville Center
Fri 10:37:00 AM 31.0017 -81.4456 359° North 203 234 4,000  Level Jacksonville Center
Fri 10:38:00 AM 31.0558 -81.4497 356° North 198 228 4,000 -350 Level Jacksonville Center
Fri 10:39:00 AM 31.0533 -81.4036 94° East 97 112 3,300 -1,000 Descending Jacksonville Center
Fri 10:40:00 AM 31.0033 -81.4239 199° South 70 81 2,000 -650 Descending Jacksonville Center
Fri 10:41:00 AM 31.0039 -81.4675 271° West 87 100 2,000 -50 Level Jacksonville Center
Fri 10:42:00 AM 31.0392 -81.4522 20° North 57 66 1,900 -350 Descending Jacksonville Center
Fri 10:43:00 AM 31.0706 -81.4397 19° North 82 94 1,300 -600 Descending Jacksonville Center

Login

Don't have an account? Register now (free) for customized features, flight alerts, and more!